TimeEST,TemperatureF,Dew PointF,Humidity,Sea Level PressureIn,VisibilityMPH,Wind Direction,Wind SpeedMPH,Gust SpeedMPH,PrecipitationIn,Events,Conditions,WindDirDegrees,DateUTC
12:15 AM,17.6,12.2,79,30.54,10.0,ENE,5.8,-,N/A,,Clear,60,2013-12-08 05:15:00
12:35 AM,17.6,12.2,79,30.53,10.0,ENE,5.8,-,N/A,,Clear,60,2013-12-08 05:35:00
12:55 AM,17.6,12.2,79,30.53,10.0,East,3.5,-,N/A,,Clear,90,2013-12-08 05:55:00
1:15 AM,17.6,12.2,79,30.54,10.0,East,5.8,-,N/A,,Clear,90,2013-12-08 06:15:00
1:35 AM,17.6,12.2,79,30.54,10.0,East,3.5,-,N/A,,Clear,100,2013-12-08 06:35:00
1:55 AM,17.6,12.2,79,30.53,10.0,Calm,Calm,-,N/A,,Clear,0,2013-12-08 06:55:00
2:15 AM,17.6,10.4,73,30.53,10.0,ENE,4.6,-,N/A,,Clear,60,2013-12-08 07:15:00
2:35 AM,17.6,12.2,79,30.53,10.0,NE,3.5,-,N/A,,Clear,50,2013-12-08 07:35:00
2:55 AM,17.6,12.2,79,30.53,10.0,NE,3.5,-,N/A,,Clear,40,2013-12-08 07:55:00
3:15 AM,17.6,10.4,73,30.52,10.0,NE,5.8,-,N/A,,Clear,40,2013-12-08 08:15:00
3:35 AM,17.6,12.2,79,30.51,10.0,NE,6.9,-,N/A,,Clear,50,2013-12-08 08:35:00
3:55 AM,17.6,12.2,79,30.50,10.0,NE,6.9,-,N/A,,Clear,50,2013-12-08 08:55:00
4:15 AM,19.4,12.2,74,30.49,10.0,ENE,6.9,-,N/A,,Clear,60,2013-12-08 09:15:00
4:35 AM,19.4,12.2,74,30.48,10.0,East,10.4,-,N/A,,Clear,80,2013-12-08 09:35:00
4:55 AM,19.4,12.2,74,30.47,10.0,East,11.5,-,N/A,,Clear,80,2013-12-08 09:55:00
5:15 AM,17.6,12.2,79,30.47,10.0,East,8.1,-,N/A,,Clear,90,2013-12-08 10:15:00
5:35 AM,17.6,12.2,79,30.45,10.0,East,10.4,-,N/A,,Clear,90,2013-12-08 10:35:00
5:55 AM,17.6,12.2,79,30.46,10.0,East,8.1,-,N/A,,Clear,80,2013-12-08 10:55:00
6:15 AM,19.4,12.2,74,30.47,10.0,East,3.5,-,N/A,,Clear,100,2013-12-08 11:15:00
6:35 AM,19.4,12.2,74,30.47,10.0,East,8.1,-,N/A,,Scattered Clouds,90,2013-12-08 11:35:00
6:55 AM,19.4,12.2,74,30.48,10.0,East,5.8,-,N/A,,Mostly Cloudy,80,2013-12-08 11:55:00
7:15 AM,19.4,12.2,74,30.47,10.0,East,5.8,-,N/A,,Mostly Cloudy,90,2013-12-08 12:15:00
7:35 AM,19.4,12.2,74,30.47,10.0,East,4.6,-,N/A,,Overcast,100,2013-12-08 12:35:00
7:55 AM,19.4,12.2,74,30.45,10.0,ENE,9.2,-,N/A,,Overcast,70,2013-12-08 12:55:00
8:15 AM,19.4,12.2,74,30.42,10.0,ENE,9.2,-,N/A,,Overcast,60,2013-12-08 13:15:00
8:35 AM,19.4,12.2,74,30.40,10.0,ENE,12.7,-,N/A,,Overcast,70,2013-12-08 13:35:00
8:55 AM,19.4,12.2,74,30.38,10.0,ENE,15.0,-,N/A,,Overcast,70,2013-12-08 13:55:00
9:15 AM,19.4,14.0,80,30.38,10.0,East,15.0,-,N/A,,Overcast,80,2013-12-08 14:15:00
9:35 AM,21.2,12.2,68,30.38,10.0,East,12.7,-,N/A,,Overcast,80,2013-12-08 14:35:00
9:55 AM,21.2,14.0,74,30.38,10.0,East,10.4,17.3,N/A,,Overcast,100,2013-12-08 14:55:00
10:15 AM,21.2,14.0,74,30.37,10.0,East,13.8,19.6,N/A,,Overcast,90,2013-12-08 15:15:00
10:35 AM,21.2,14.0,74,30.36,10.0,East,13.8,-,N/A,,Overcast,80,2013-12-08 15:35:00
10:55 AM,23.0,14.0,68,30.35,10.0,East,13.8,-,N/A,,Overcast,90,2013-12-08 15:55:00
11:35 AM,23.0,14.0,68,30.34,10.0,East,13.8,20.7,N/A,,Overcast,90,2013-12-08 16:35:00
11:55 AM,24.8,14.0,64,30.31,10.0,East,15.0,19.6,N/A,,Overcast,90,2013-12-08 16:55:00
12:15 PM,24.8,14.0,64,30.30,10.0,ESE,16.1,24.2,N/A,,Overcast,110,2013-12-08 17:15:00
12:35 PM,26.6,14.0,59,30.28,10.0,ESE,15.0,24.2,N/A,,Overcast,110,2013-12-08 17:35:00
12:55 PM,26.6,14.0,59,30.27,10.0,East,16.1,23.0,N/A,,Overcast,100,2013-12-08 17:55:00
1:15 PM,26.6,14.0,59,30.26,10.0,ESE,17.3,25.3,N/A,,Overcast,110,2013-12-08 18:15:00
1:35 PM,26.6,14.0,59,30.25,10.0,East,12.7,19.6,N/A,,Overcast,100,2013-12-08 18:35:00
1:55 PM,26.6,15.8,64,30.23,10.0,East,16.1,21.9,N/A,,Overcast,100,2013-12-08 18:55:00
2:15 PM,26.6,15.8,64,30.21,10.0,East,11.5,18.4,N/A,Snow,Light Snow,100,2013-12-08 19:15:00
2:35 PM,26.6,17.6,69,30.20,10.0,East,13.8,19.6,N/A,Snow,Light Snow,100,2013-12-08 19:35:00
2:55 PM,26.6,17.6,69,30.18,10.0,East,11.5,-,N/A,Snow,Light Snow,90,2013-12-08 19:55:00
3:15 PM,26.6,17.6,69,30.17,10.0,ESE,11.5,17.3,N/A,,Overcast,110,2013-12-08 20:15:00
3:35 PM,26.6,17.6,69,30.14,10.0,East,9.2,17.3,N/A,,Overcast,100,2013-12-08 20:35:00
3:55 PM,26.6,17.6,69,30.12,10.0,East,16.1,20.7,N/A,,Overcast,100,2013-12-08 20:55:00
4:15 PM,26.6,17.6,69,30.12,10.0,East,16.1,20.7,N/A,,Overcast,100,2013-12-08 21:15:00
4:35 PM,26.6,17.6,69,30.10,10.0,ESE,17.3,-,N/A,,Overcast,110,2013-12-08 21:35:00
4:55 PM,26.6,19.4,74,30.10,10.0,East,11.5,19.6,N/A,,Overcast,100,2013-12-08 21:55:00
5:15 PM,26.6,19.4,74,30.10,10.0,ESE,9.2,17.3,N/A,,Overcast,110,2013-12-08 22:15:00
5:35 PM,26.6,19.4,74,30.07,5.0,East,18.4,-,N/A,Snow,Light Snow,100,2013-12-08 22:35:00
5:55 PM,26.6,21.2,80,30.06,4.0,ESE,10.4,21.9,N/A,Snow,Light Snow,110,2013-12-08 22:55:00
6:15 PM,26.6,21.2,80,30.07,3.0,East,9.2,-,N/A,Snow,Light Snow,100,2013-12-08 23:15:00
6:35 PM,26.6,21.2,80,30.07,7.0,East,9.2,-,N/A,,Overcast,100,2013-12-08 23:35:00
6:55 PM,26.6,21.2,80,30.05,7.0,ESE,13.8,-,N/A,,Overcast,110,2013-12-08 23:55:00
7:15 PM,26.6,23.0,86,30.05,5.0,ESE,12.7,-,N/A,Snow,Light Snow,110,2013-12-09 00:15:00
7:35 PM,26.6,23.0,86,30.04,2.5,SE,11.5,17.3,N/A,Snow,Light Snow,130,2013-12-09 00:35:00
7:55 PM,26.6,23.0,86,30.03,2.0,SE,9.2,-,N/A,Snow,Light Snow,130,2013-12-09 00:55:00
8:15 PM,26.6,23.0,86,30.01,1.5,ESE,8.1,-,N/A,Snow,Light Snow,120,2013-12-09 01:15:00
8:35 PM,26.6,23.0,86,30.00,3.0,SE,6.9,-,N/A,Snow,Light Snow,130,2013-12-09 01:35:00
8:55 PM,26.6,23.0,86,30.00,4.0,SE,9.2,-,N/A,Snow,Light Snow,130,2013-12-09 01:55:00
9:15 PM,26.6,23.0,86,30.00,5.0,SE,8.1,-,N/A,,Overcast,130,2013-12-09 02:15:00
9:35 PM,26.6,23.0,86,30.00,7.0,SE,8.1,-,N/A,,Overcast,140,2013-12-09 02:35:00
9:55 PM,26.6,23.0,86,30.00,1.8,SSE,3.5,-,N/A,Snow,Light Snow,160,2013-12-09 02:55:00
10:15 PM,26.6,24.8,93,29.98,1.5,SSE,4.6,-,N/A,Snow,Light Snow,160,2013-12-09 03:15:00
10:35 PM,26.6,24.8,93,29.98,1.2,SSE,4.6,-,N/A,Snow,Light Snow,160,2013-12-09 03:35:00
10:55 PM,26.6,24.8,93,29.98,1.5,South,4.6,-,N/A,Snow,Light Snow,170,2013-12-09 03:55:00
11:15 PM,26.6,24.8,93,29.98,1.2,Calm,Calm,-,N/A,Snow,Light Snow,0,2013-12-09 04:15:00
11:35 PM,26.6,24.8,93,29.97,2.5,SSE,4.6,-,N/A,Snow,Light Snow,160,2013-12-09 04:35:00
11:55 PM,26.6,26.6,100,29.96,3.0,South,4.6,-,N/A,Snow,Light Snow,190,2013-12-09 04:55:00